Terminal Aerodrome Forecast
Issued by NWS Bismarck, ND

Home | Current Version | Previous Version | Graphics & Text | Print | Product List | Glossary On
Versions: 1 2 3 4 5 6 7 8 9 10 11 12 13 14 15 16 17 18
336
FTUS43 KBIS 211556 AAD
TAFBIS
TAF AMD
KBIS 211556Z 2116/2212 15006KT P6SM BKN006
     FM211700 17008KT P6SM SCT015
     FM211900 17007KT P6SM SCT050
     FM220100 18006KT P6SM SKC=

USA.gov is the U.S. government's official web portal to all federal, state and local government web resources and services.